Location: East Guldeford
(50.9500°N, 0.7500°E)
Time: 09:41:09
(UTC+00:00)

Cosmos 1536 - Pass Details

Date: 12 May 2021
Orbit: 539 x 558 km, 82.5° (Epoch: 16 June)

Event Time Altitude Azimuth Distance (km) Brightness Sun altitude
Rises 22:34:06 0° 340° (NNW) 2,748 8.1 -18.5°
Reaches altitude 10° 22:36:30 10° 329° (NNW) 1,844 6.7 -18.6°
Maximum altitude 22:39:57 28° 271° (W) 1,067 4.4 -18.8°
Enters shadow 22:41:49 19° 229° (SW) 1,333 4.5 -18.9°
